User: anonymous   Login
Location: Fort Wayne
(41.1310°N, 85.1290°W)
Time: 10:55:32
(UTC-04:00)
Language:

Oscar 19 - Orbit

View from above orbital plane
View from above orbital plane
View from above satellite
View from above satellite

Ground track
Ground track

The orbit data is extracted from the following two-line orbital elements,

1 20442U 90005G   16237.78050843  .00000007  00000-0  18763-4 0  9996
2 20442  98.5453 171.7758 0010873 307.6934  52.3264 14.32826377389178
Epoch (UTC): 24 August 2016 18:43:55
Eccentricity: 0.0010873
inclination: 98.5453°
perigee height: 774 km
apogee height: 790 km
right ascension of ascending node: 171.7758°
argument of perigee: 307.6934°
revolutions per day: 14.32826377
mean anomaly at epoch: 52.3264°
orbit number at epoch: 38917

The dashed part of the orbit path shows where the satellite is in the earth's shadow,  

DLR